Terminal Aerodrome Forecast
Issued by NWS

Home | Current Version | Previous Version | Text Only | Print | Product List | Glossary On
Versions: 1 2 3 4 5 6 7 8 9 10 11 12 13 14 15 16 17
383
FTUS46 KSEW 270801 AAA
TAFBFI
TAF AMD
KBFI 270801Z 2708/2806 15005KT P6SM SCT035 BKN050
     FM271200 15005KT P6SM VCSH BKN030
     FM272100 18006KT P6SM VCSH BKN035
     FM280500 15005KT P6SM BKN040=

USA.gov is the U.S. government's official web portal to all federal, state and local government web resources and services.